Location: Mason Neck State Park
(38.6428°N, 77.1981°W)
Time: 17:24:31
(UTC-04:00)

ISS - Visible Passes

Search period start: 24 April 2014 00:00
Search period end: 04 May 2014 00:00
Orbit: 412 x 418 km, 51.6° (Epoch: 24 April)

Date Brightness Start Highest point End Pass type
(mag) Time Alt. Az. Time Alt. Az. Time Alt. Az.
24 Apr -1.3 21:28:51 10° W 21:31:28 21° SW 21:32:35 18° SSW visible
25 Apr -2.2 20:39:36 10° WNW 20:42:45 39° SW 20:45:53 10° SSE visible
27 Apr -0.5 20:39:29 10° W 20:41:12 13° SW 20:42:54 10° SSW visible
